Location: Fisheating Creek Campgrounds
(26.9333°N, 81.3167°W)
Time: 12:32:05
(UTC-05:00)

Cosmos 2221 Rocket - Visible Passes

Search period start: 22 February 2017 00:00
Search period end: 04 March 2017 00:00
Orbit: 621 x 648 km, 82.5° (Epoch: 22 February)

Date Brightness Start Highest point End Pass type
(mag) Time Alt. Az. Time Alt. Az. Time Alt. Az.
22 Feb 5.8 04:42:14 10° SE 04:46:00 26° E 04:49:46 10° NE visible
22 Feb 5.0 06:20:57 10° WSW 06:24:05 18° WNW 06:27:13 10° NW visible
23 Feb 4.1 05:03:36 10° S 05:08:05 62° E 05:12:35 10° NNE visible
24 Feb 3.7 05:26:14 12° SSW 05:30:17 54° W 05:34:45 10° N visible
25 Feb 6.0 04:14:32 20° E 04:14:38 20° E 04:17:59 10° NE visible
25 Feb 4.7 05:52:10 23° W 05:52:36 23° W 05:56:13 10° NNW visible
26 Feb 5.2 04:38:26 31° NE 04:38:26 31° NE 04:41:04 10° NNE visible
27 Feb 5.3 05:01:45 22° N 05:01:45 22° N 05:03:24 10° N visible
28 Feb 5.9 05:24:45 12° NNW 05:24:45 12° NNW 05:25:06 10° NNW visible
